Regional Weather Roundup
Issued by NWS Mobile, AL

Home | Current Version | Previous Version | Text Only | Print | Product List | Glossary On
Versions: 1 2 3 4 5 6 7 8 9 10 11 12 13 14 15 16 17 18 19 20 21 22 23 24 25 26 27 28 29 30 31 32 33 34 35 36 37 38 39 40 41 42 43 44 45 46 47 48 49 50
000
ASUS44 KMOB 221110
RWRMOB
REGIONAL WEATHER ROUNDUP
NATIONAL WEATHER SERVICE MOBILE AL
600 AM CDT FRI AUG 22 2014

NOTE: "FAIR" INDICATES FEW OR NO CLOUDS BELOW 12,000 FEET WITH NO
      SIGNIFICANT WEATHER AND/OR OBSTRUCTIONS TO VISIBILITY.

  * THESE STATIONS ARE PART OF THE UNIVERSITY OF SOUTH ALABAMA
    MESONET AND ARE NOT UNDER NWS OR FAA QUALITY CONTROL.

ALZ061>064-221200-
COASTAL ALABAMA

CITY           SKY/WX    TMP DP  RH WIND       PRES   REMARKS
MOBILE REG APT PTCLDY    75  75 100 NW3       30.09S
BROOKLEY FIELD CLEAR     78  75  90 NW3       30.09S
USA CAMPUS*      N/A     75  73  94 CALM      30.08S
DOG RIVER*       N/A     77  75  94 CALM      30.08S


CITY           SKY/WX    TMP DP  RH WIND       PRES   REMARKS
MOUNT VERNON*  NOT AVBL
SARALAND*      NOT AVBL
BAY MINETTE*   NOT AVBL
LOXLEY*          N/A    N/A N/A N/A NW3       30.09R
ROBERTSDALE*     N/A    N/A N/A N/A CALM      30.08S
FAIRHOPE*        N/A     79  77  94 NW5       30.07S
ELBERTA*         N/A     79  66  65 CALM      30.07R
FOLEY*         NOT AVBL
GRAND BAY*       N/A     73  73 100 CALM      30.06F
DAUPHIN ISLND* NOT AVBL
BON SCOUR NWR* NOT AVBL
GULF SHORES    PTCLDY    78  76  94 CALM      30.07S

$$

ALZ051>060-221200-
INTERIOR SOUTHWEST AND SOUTH CENTRAL ALABAMA

CITY           SKY/WX    TMP DP  RH WIND       PRES   REMARKS
GREENVILLE     CLEAR     75  72  90 CALM      30.08S
EVERGREEN      CLEAR     75  73  93 CALM      30.09R FOG
CASTLEBERRY*   NOT AVBL
ATMORE*          N/A     75  73  94 NW5       30.10R
DIXIE*         NOT AVBL
ANDALUSIA/OPP  CLEAR     80  75  84 CALM      30.08R
ANDALUSIA*     NOT AVBL
FLORALA APT    CLEAR     77  74  90 CALM      30.10R
FLORALA*         N/A     75  73  94 CALM      30.06R

$$

FLZ001>006-221200-
WESTERN FLORIDA PANHANDLE

CITY           SKY/WX    TMP DP  RH WIND       PRES   REMARKS
PENSACOLA      MOCLDY    78  76  93 NW7       30.07R
NAS PENSACOLA  MOCLDY    78  76  93 NW5       30.07R
MILTON         PTCLDY    76  74  93 NW6       30.08R
WHTNG S FIELD  PTCLDY    78  75  90 NW6       30.08R


CITY           SKY/WX    TMP DP  RH WIND       PRES   REMARKS
WALNUT HILL*   NOT AVBL
JAY*           NOT AVBL
DUKE FIELD     CLEAR     77  76  99 NW3       30.08R
CRESTVIEW      CLEAR     75  74  96 CALM      30.09R
VALPARAISO     PTCLDY    78  75  90 NW6       30.08R
DESTIN         CLEAR     82  77  84 VRB3      30.07R

$$

MSZ076-079-221200-
INTERIOR SOUTHEAST MISSISSIPPI

CITY           SKY/WX    TMP DP  RH WIND       PRES   REMARKS
LEAKESVILLE*     N/A     72  70  94 CALM        N/A
AGRICOLA*      NOT AVBL

$$

MARINE OBSERVATIONS

STATION/POSITION TIME  TEMP    WIND        PRES    WAVE
                       AIR SEA DIR/SP/G            HT/PER
                 (UTC) (F)     (DEG/KT/KT) (MB)    (FT/S)
PASCAGOULA       1100   80     330/  3/  4 1018.2S
PETIT BOIS ISLND 1000   84     320/  8/ 11 1018.6S
GRAND BAY        1000   79     310/  5     1019.0S
KATRINA CUT      1000   84     320/ 11     1019.0S
CEDAR POINT      1000   81     320/  8     1018.3S
E DAUPHIN ISLAND 1000   83     310/ 10/ 10 1018.3R
MIDDLE BAY LIGHT 1000   83     320/ 11     1017.6F
USCG MOBILE BAY  1100   81 86  320/  2/  3 1017.4F
STATE DOCKS      1100   80 87              1018.3S
MEAHER PARK      1000   80     330/  3     1018.3S
WEEKS BAY        1000   73                   N/A
FORT MORGAN      1100   83     330/ 10/ 11 1017.9R
12 S ORANGE BCH  1100   85 86  290/ 10/ 12 1018.3R   1/ 5
PENSACOLA BAY    1100   81 87  320/  5/  7 1018.5R
64 S DAUPHIN ISL 1045   85 88  310/  8/ 10 1018.8R
67 S FORT MORGAN 1000   84                 1018.3R

$$

SELECTED LOCATIONS ACROSS THE REGION

CITY           SKY/WX    TMP DP  RH WIND       PRES   REMARKS
NEW ORLEANS    MOCLDY    76  73  91 W3        30.10R
GULFPORT       PTCLDY    77  74  90 NW3       30.08R
PASCAGOULA AP  CLEAR     73  73 100 CALM      30.08S
PASCAGOULA*      N/A     79  75  89 CALM      30.07S
HATTIESBURG    FOG       74  71  91 CALM      30.10S VSB 3/4
LAUREL         CLEAR     72  68  88 CALM      30.11S
MERIDIAN       CLEAR     71  69  93 CALM      30.10S
JACKSON        CLEAR     72  71  97 CALM      30.11R
MONTGOMERY     CLEAR     76  73  91 SW3       30.08R
TROY           CLEAR     73  71  93 CALM      30.09R
KINSTON*       NOT AVBL
GENEVA*          N/A     73  72  94 CALM      30.09R
ASHFORD*       NOT AVBL
DOTHAN         CLEAR     75  72  90 NW3       30.11R
PANAMA CITY    CLEAR     76  73  91 NW3       30.07R

$$



USA.gov is the U.S. government's official web portal to all federal, state and local government web resources and services.